| time (UTC) | temp F | wind direction | speed MPH | gust MPH | rain 1hr in | rain 24hr in | rain mn in | humidity % | barometer mb |
| 20260509153030 | 52 | 241 | 2.0 | 5.0 | 0.00 | 0.00 | 0.00 | 81 | 1022.5 |
| 20260509151534 | 52 | 255 | 0.0 | 4.0 | 0.00 | 0.00 | 0.00 | 82 | 1022.5 |
| 20260509150039 | 51 | 300 | 3.0 | 6.0 | 0.00 | 0.00 | 0.00 | 84 | 1022.6 |
| 20260509144533 | 50 | 293 | 2.0 | 4.0 | 0.00 | 0.00 | 0.00 | 85 | 1022.6 |
| 20260509143029 | 50 | 217 | 1.0 | 6.0 | 0.00 | 0.00 | 0.00 | 86 | 1022.5 |
| 20260509141538 | 48 | 137 | 0.0 | 3.0 | 0.00 | 0.00 | 0.00 | 87 | 1022.4 |
| 20260509140032 | 47 | 138 | 3.0 | 6.0 | 0.00 | 0.00 | 0.00 | 87 | 1022.4 |
| 20260509134533 | 47 | 148 | 4.0 | 7.0 | 0.00 | 0.00 | 0.00 | 86 | 1022.5 |
| 20260509133036 | 47 | 136 | 4.0 | 6.0 | 0.00 | 0.00 | 0.00 | 85 | 1022.4 |
| 20260509131530 | 48 | 170 | 4.0 | 8.0 | 0.00 | 0.00 | 0.00 | 85 | 1022.2 |
| 20260509130030 | 47 | 187 | 1.0 | 7.0 | 0.00 | 0.00 | 0.00 | 85 | 1022.1 |
| 20260509124538 | 47 | 130 | 2.0 | 4.0 | 0.00 | 0.00 | 0.00 | 84 | 1021.9 |
| 20260509123027 | 47 | 79 | 1.0 | 6.0 | 0.00 | 0.00 | 0.00 | 81 | 1021.9 |
| 20260509121532 | 50 | 162 | 3.0 | 5.0 | 0.00 | 0.00 | 0.00 | 78 | 1021.8 |
| 20260509120030 | 52 | 237 | 3.0 | 7.0 | 0.00 | 0.00 | 0.00 | 77 | 1021.6 |
| 20260509110031 | 54 | 229 | 5.0 | 12.0 | 0.00 | 0.00 | 0.00 | 74 | 1021.4 |
| 20260509104530 | 51 | 214 | 5.0 | 13.0 | 0.00 | 0.00 | 0.00 | 79 | 1021.4 |
| 20260509103033 | 50 | 58 | 2.0 | 9.0 | 0.00 | 0.00 | 0.00 | 80 | 1021.4 |
| 20260509101530 | 50 | 59 | 1.0 | 4.0 | 0.00 | 0.00 | 0.00 | 78 | 1021.5 |
| 20260509100027 | 51 | 133 | 1.0 | 3.0 | 0.00 | 0.00 | 0.00 | 75 | 1021.7 |
| 20260509091537 | 54 | 232 | 6.0 | 10.0 | 0.00 | 0.00 | 0.00 | 72 | 1022.0 |
| 20260509090031 | 53 | 257 | 5.0 | 8.0 | 0.00 | 0.00 | 0.00 | 74 | 1022.2 |
| 20260509081531 | 54 | 261 | 1.0 | 4.0 | 0.00 | 0.00 | 0.00 | 71 | 1022.3 |
| 20260509080030 | 55 | 260 | 5.0 | 8.0 | 0.00 | 0.00 | 0.00 | 70 | 1022.3 |
| 20260509074607 | 56 | 257 | 3.0 | 7.0 | 0.00 | 0.00 | 0.00 | 66 | 1022.4 |
| 20260509073032 | 57 | 266 | 3.0 | 6.0 | 0.00 | 0.00 | 0.00 | 64 | 1022.2 |
| 20260509071605 | 57 | 211 | 6.0 | 15.0 | 0.00 | 0.00 | 0.00 | 64 | 1022.1 |
| 20260509070033 | 58 | 244 | 3.0 | 14.0 | 0.00 | 0.00 | 0.00 | 62 | 1021.8 |
| 20260509064531 | 58 | 235 | 8.0 | 18.0 | 0.00 | 0.00 | 0.00 | 61 | 1021.7 |
| 20260509061534 | 58 | 242 | 13.0 | 23.0 | 0.00 | 0.00 | 0.00 | 61 | 1021.8 |
| 20260509060032 | 58 | 245 | 11.0 | 19.0 | 0.00 | 0.00 | 0.00 | 61 | 1022.1 |
| 20260509054530 | 58 | 246 | 10.0 | 16.0 | 0.00 | 0.00 | 0.00 | 61 | 1022.2 |
| 20260509051607 | 58 | 238 | 8.0 | 15.0 | 0.00 | 0.00 | 0.00 | 60 | 1022.3 |
| 20260509044534 | 59 | 222 | 8.0 | 14.0 | 0.00 | 0.00 | 0.00 | 59 | 1022.2 |
| 20260509043106 | 59 | 220 | 7.0 | 13.0 | 0.00 | 0.00 | 0.00 | 58 | 1022.1 |
| 20260509041530 | 59 | 223 | 6.0 | 11.0 | 0.00 | 0.00 | 0.00 | 57 | 1021.9 |
| 20260509040030 | 60 | 221 | 8.0 | 14.0 | 0.00 | 0.00 | 0.00 | 57 | 1021.6 |
| 20260509033031 | 61 | 227 | 9.0 | 19.0 | 0.00 | 0.00 | 0.00 | 54 | 1021.2 |
| 20260509031532 | 61 | 233 | 9.0 | 18.0 | 0.00 | 0.00 | 0.00 | 53 | 1020.9 |
| 20260509030031 | 62 | 231 | 10.0 | 21.0 | 0.00 | 0.00 | 0.00 | 51 | 1020.7 |
| 20260509023107 | 64 | 235 | 12.0 | 23.0 | 0.00 | 0.00 | 0.00 | 48 | 1020.5 |
| 20260509021529 | 65 | 234 | 12.0 | 23.0 | 0.00 | 0.00 | 0.00 | 47 | 1020.4 |
| 20260509020030 | 66 | 228 | 10.0 | 26.0 | 0.00 | 0.00 | 0.00 | 46 | 1020.3 |
| 20260509014530 | 66 | 233 | 10.0 | 18.0 | 0.00 | 0.00 | 0.00 | 46 | 1020.2 |
| 20260509013031 | 66 | 245 | 9.0 | 16.0 | 0.00 | 0.00 | 0.00 | 44 | 1020.2 |
| 20260509011531 | 67 | 248 | 9.0 | 19.0 | 0.00 | 0.00 | 0.00 | 44 | 1020.2 |
| 20260509010107 | 67 | 252 | 8.0 | 19.0 | 0.00 | 0.00 | 0.00 | 43 | 1020.1 |
| 20260509004532 | 67 | 249 | 10.0 | 19.0 | 0.00 | 0.00 | 0.00 | 42 | 1020.0 |
| 20260509001530 | 67 | 254 | 9.0 | 20.0 | 0.00 | 0.00 | 0.00 | 40 | 1019.6 |
| 20260509000041 | 67 | 249 | 13.0 | 25.0 | 0.00 | 0.00 | 0.00 | 38 | 1019.5 |
| 20260508233105 | 67 | 255 | 14.0 | 25.0 | 0.00 | 0.00 | 0.00 | 36 | 1019.4 |
| 20260508231533 | 67 | 260 | 13.0 | 29.0 | 0.00 | 0.00 | 0.00 | 35 | 1019.4 |
| 20260508230031 | 67 | 261 | 13.0 | 24.0 | 0.00 | 0.00 | 0.00 | 37 | 1019.4 |
| 20260508223030 | 66 | 249 | 16.0 | 30.0 | 0.00 | 0.00 | 0.00 | 38 | 1019.5 |
| 20260508221531 | 66 | 265 | 13.0 | 26.0 | 0.00 | 0.00 | 0.00 | 40 | 1019.6 |
| 20260508220103 | 65 | 267 | 13.0 | 24.0 | 0.00 | 0.00 | 0.00 | 41 | 1019.6 |
| 20260508214530 | 65 | 267 | 12.0 | 25.0 | 0.00 | 0.00 | 0.00 | 41 | 1019.8 |
| 20260508213107 | 65 | 264 | 13.0 | 25.0 | 0.00 | 0.00 | 0.00 | 41 | 1019.9 |
| 20260508210107 | 64 | 258 | 13.0 | 25.0 | 0.00 | 0.00 | 0.00 | 41 | 1019.8 |
| 20260508204530 | 64 | 256 | 14.0 | 30.0 | 0.00 | 0.00 | 0.00 | 41 | 1019.8 |
| 20260508201531 | 64 | 242 | 15.0 | 25.0 | 0.00 | 0.00 | 0.00 | 43 | 1019.7 |
| 20260508200032 | 63 | 240 | 14.0 | 28.0 | 0.00 | 0.00 | 0.00 | 45 | 1019.7 |
| 20260508194529 | 63 | 240 | 15.0 | 25.0 | 0.00 | 0.00 | 0.00 | 45 | 1019.6 |
| 20260508193031 | 63 | 239 | 13.0 | 25.0 | 0.00 | 0.00 | 0.00 | 48 | 1019.7 |
| 20260508191608 | 61 | 243 | 9.0 | 20.0 | 0.00 | 0.00 | 0.00 | 49 | 1020.0 |
| 20260508184530 | 59 | 238 | 14.0 | 25.0 | 0.00 | 0.00 | 0.00 | 51 | 1019.9 |
| 20260508181532 | 55 | 236 | 11.0 | 24.0 | 0.00 | 0.00 | 0.00 | 54 | 1019.6 |
| 20260508180033 | 55 | 235 | 10.0 | 22.0 | 0.00 | 0.00 | 0.00 | 55 | 1019.6 |
| 20260508173030 | 56 | 266 | 9.0 | 16.0 | 0.00 | 0.00 | 0.00 | 58 | 1019.3 |
| 20260508170029 | 57 | 253 | 13.0 | 25.0 | 0.00 | 0.00 | 0.00 | 55 | 1018.9 |
| 20260508164530 | 57 | 252 | 13.0 | 24.0 | 0.00 | 0.00 | 0.00 | 57 | 1018.9 |
| 20260508163029 | 57 | 266 | 12.0 | 24.0 | 0.00 | 0.00 | 0.00 | 59 | 1019.2 |
| 20260508161530 | 57 | 260 | 14.0 | 23.0 | 0.00 | 0.00 | 0.00 | 60 | 1019.3 |
| 20260508160144 | 56 | 259 | 14.0 | 26.0 | 0.00 | 0.00 | 0.00 | 62 | 1019.2 |
| 20260508154533 | 57 | 250 | 15.0 | 24.0 | 0.00 | 0.00 | 0.00 | 63 | 1019.2 |